轨道通信卫星FM27星 (ORBCOMM FM27)

导读

ORBCOMM FM 27是ORBCOMM轨道通信系统中的卫星,由ORB于1998年9月23日发射升空。该系统由美国轨道通信公司与加拿大环电联合打造,属于近地轨道小型移动通信系统。这颗卫星承担着全球短信息收发、数据通信及定位服务,支持工业远程监测等功能,以低功耗、低成本实现全球覆盖,推动了全球卫星移动通信发展。

基本信息
目录编号:
25481
目录名称:
ORBCOMM FM 27
国际标识:
1998-053G
轨道中心:
EARTH
卫星名称:
轨道通信卫星FM27星
卫星全名:
轨道通信卫星FM27星 (ORBCOMM FM27)
卫星状态:
在轨 (已飞行10215 天)
发射日期:
1998-09-23 UTC
国别 :
(ORB)
星等 :
--
该卫星已列入 空间交会检测服务 Space Conjunction Data Service (SCDS) ,当前飞行风险评估等级: 无高风险
轨道信息
数据来源 国际轨道数据 AOE轨道数据
星历时间 2026-09-09T03:59:27+0800
2天前
查看轨道信息
2026-09-06T06:00:00+0800
5天前
查看轨道信息
半长轴 7139.055km 7139.072km
偏心率 0.0002887 0.0002885
轨道倾角 45.006° 45.004°
近地点辐角 263.300° 247.230°
升交点赤经 298.021° 311.877°
平近点角 96.752° 107.823°
近地点 758.856km 758.875km
远地点 762.98km 762.995km
周期 100.051分钟 100.051分钟
每日圈数 14.392681 14.392631
详细信息
固有亮度:
8
最大亮度:
6.9
平衡模式:
三轴稳定
覆盖范围:
全球
运营商:
轨道通信公司
运营商所在国:
美国
制造商(研发单位):
轨道ATK公司
制造商所在国:
美国
使用方式:
暂无
卫星简介
轨道通信FM(Orbcomm FM)是一系列低地球轨道通信卫星,由美国卫星通信公司 Orbcomm运营。 截至2015年12月,已有63颗此类卫星绕地球运行。该卫星仍在工作。
2D轨道图
3D轨道图
轨道高度分析图
轨道倾角分析图
轨道综合分析图
查看轨道综合分析图
与全量物体交会距离演化趋势
与全量物体交会风险概率演化趋势